Temp
53 52 50 48 50 53 53 53 54 54 53 53 53 53 52 52 51 51 50 49 49 48
50 48 47 53 53 53 53 53 53 53 52 53 53 52 51 50 50 50 50 49 49 47
47 52 53 52 48 49 51 51 52 52 51 51 50 50 50 49 49 48 49 48 47 47
52 49 47 46 47 50 51 51 50 50 50 49 48 49 48 48 48 47 47 48 47 47
46 45 44 46 50 51 50 50 50 50 49 49 48 48 47 47 47 47 47 48 48 48
44 44 46 50 50 50 50 50 50 49 48 48 48 48 48 47 48 49 50 49 48 48
45 45 49 50 50 49 50 49 49 49 49 48 48 48 48 49 50 49 50 50 50 49
46 47 49 50 50 50 49 49 48 49 49 49 48 48 48 49 49 48 48 50 50 51
48 50 50 51 50 49 46 47 48 48 48 48 48 47 48 50 49 49 48 48 49 50
49 48 48 47 48 45 45 44 47 47 47 47 47 47 47 48 49 48 48 48 48 50
49 48 48 47 45 44 44 44 44 46 48 46 47 47 46 47 49 49 49 49 48 47
49 49 47 46 44 43 43 46 44 46 46 46 47 47 46 46 48 49 48 49 49 47
50 49 46 44 43 42 42 44 47 47 47 48 48 46 46 45 46 48 48 50 49 49
49 48 47 44 43 42 43 42 44 44 44 44 45 46 45 45 50 46 47 47 48 50
MSLP
1019.95 1020.04 1019.95 1019.74 1019.39 1018.93 1018.40 1017.81 1017.22 1016.64 1016.10 1015.55 1014.90 1014.44 1014.02 1013.49 1012.89 1012.39 1011.96 1011.52 1011.01 1010.57
1020.35 1020.24 1020.17 1019.85 1019.45 1018.96 1018.47 1017.74 1016.99 1016.39 1015.83 1015.20 1014.67 1014.14 1013.56 1012.91 1012.28 1011.73 1011.23 1010.66 1010.24 1009.96
1020.81 1020.54 1020.26 1019.97 1019.52 1019.04 1018.39 1017.66 1016.87 1016.21 1015.67 1015.08 1014.45 1013.79 1013.11 1012.36 1011.66 1011.08 1010.40 1009.86 1009.44 1009.09
1020.92 1020.71 1020.38 1020.05 1019.60 1019.02 1018.22 1017.53 1016.90 1016.21 1015.46 1014.77 1014.03 1013.24 1012.51 1011.76 1011.00 1010.31 1009.59 1008.99 1008.45 1008.12
1021.05 1020.76 1020.48 1019.99 1019.45 1018.89 1018.25 1017.59 1016.86 1016.07 1015.25 1014.48 1013.68 1012.91 1012.12 1011.23 1010.40 1009.62 1008.73 1008.09 1007.62 1007.43
1021.05 1020.74 1020.27 1019.82 1019.40 1018.83 1018.24 1017.50 1016.73 1015.96 1015.12 1014.30 1013.53 1012.68 1011.82 1010.93 1009.93 1009.03 1008.17 1007.59 1007.28 1006.94
1020.86 1020.40 1019.96 1019.56 1019.21 1018.58 1018.05 1017.54 1016.73 1015.95 1015.17 1014.33 1013.49 1012.65 1011.76 1010.63 1009.77 1009.04 1008.26 1007.50 1006.82 1006.49
1020.53 1020.05 1019.62 1019.21 1018.82 1018.33 1018.03 1017.45 1016.64 1015.93 1015.16 1014.47 1013.64 1012.86 1011.94 1010.90 1010.04 1009.36 1008.51 1007.74 1007.19 1006.64
1020.30 1019.81 1019.42 1019.03 1018.60 1018.22 1017.89 1017.26 1016.41 1015.94 1015.37 1014.70 1014.04 1013.24 1012.29 1011.48 1010.68 1009.93 1009.12 1008.39 1007.69 1007.03
1020.15 1019.86 1019.49 1018.99 1018.57 1018.24 1017.72 1017.08 1016.46 1016.15 1015.50 1014.99 1014.43 1013.51 1012.68 1011.92 1011.26 1010.57 1009.95 1009.27 1008.60 1007.82
1020.09 1019.85 1019.41 1019.04 1018.73 1018.28 1017.59 1017.02 1016.45 1016.12 1015.60 1015.12 1014.62 1013.88 1013.08 1012.34 1011.73 1011.03 1010.42 1009.85 1009.30 1008.77
1020.03 1019.79 1019.48 1019.34 1018.94 1018.27 1017.74 1017.05 1016.39 1015.98 1015.65 1015.37 1014.82 1014.21 1013.54 1012.76 1012.10 1011.49 1010.88 1010.34 1009.85 1009.55
1019.87 1019.61 1019.65 1019.41 1018.92 1018.41 1017.86 1017.45 1016.65 1016.15 1015.79 1015.59 1015.14 1014.51 1013.82 1013.17 1012.46 1011.97 1011.34 1010.64 1010.22 1009.81
1019.58 1019.45 1019.41 1019.24 1019.01 1018.69 1018.23 1017.80 1017.30 1016.95 1016.39 1015.90 1015.43 1014.89 1014.24 1013.42 1012.75 1012.39 1011.86 1011.31 1010.88 1010.42
Wind_Speed
10 6 6 6 7 8 9 9 11 11 12 13 13 12 12 10 10 11 10 14 11 9
9 8 7 10 9 8 9 9 12 13 13 13 12 13 13 10 11 12 11 12 12 11
7 8 8 8 8 9 10 12 13 12 12 13 13 12 12 10 11 12 10 10 12 11
8 7 6 6 7 10 11 12 12 13 13 13 13 13 12 12 13 12 13 12 12 13
6 6 6 7 9 10 11 11 11 12 12 13 13 13 13 13 13 13 13 11 9 10
6 6 7 7 8 8 9 11 12 12 12 13 13 13 12 12 12 11 11 8 6 8
6 7 7 6 7 7 8 9 11 12 12 12 13 11 12 12 11 11 10 10 7 7
7 7 7 7 6 7 7 8 8 10 12 12 11 11 13 12 12 12 12 10 10 9
7 7 6 6 5 6 7 8 8 7 10 11 10 21 21 17 11 12 13 12 11 10
6 6 6 7 6 7 8 7 7 7 7 9 11 21 20 21 10 10 11 12 11 11
5 6 7 7 7 8 6 7 7 6 6 6 7 19 20 18 10 9 10 11 12 10
5 5 7 8 7 6 6 9 6 3 5 6 8 16 20 14 8 9 8 6 7 9
6 5 6 5 7 6 5 6 9 4 5 7 10 15 20 15 6 8 7 7 9 13
7 4 3 3 4 6 7 7 8 7 6 6 8 12 17 19 9 4 5 6 7 7
Wind_Direction
38 27 14 350 337 333 327 320 317 317 314 308 305 299 297 290 285 275 277 278 270 263
21 14 352 347 331 327 324 318 319 313 309 308 309 306 300 291 288 281 275 269 265 264
2 354 348 340 330 330 319 319 318 321 320 319 313 307 303 298 292 287 278 270 263 260
3 350 337 327 326 326 325 332 330 324 318 317 315 312 305 299 294 288 282 273 260 258
343 339 331 328 333 337 330 331 331 328 325 323 321 316 310 306 301 295 289 286 269 258
329 321 324 327 333 322 331 334 336 335 333 330 325 320 317 310 303 307 316 290 271 261
311 312 303 300 301 307 323 325 338 342 340 338 333 333 330 332 338 339 335 334 306 267
307 298 295 287 285 303 313 309 318 345 349 349 352 352 351 355 354 355 353 359 1 357
305 304 312 319 320 308 304 301 313 344 348 354 359 351 358 4 358 5 8 4 5 4
318 329 334 340 336 322 307 286 300 330 330 354 7 359 1 357 358 359 4 6 1 16
348 349 337 339 332 322 312 317 293 310 331 337 357 5 2 354 354 1 3 8 12 6
330 349 342 338 331 325 326 333 309 299 356 352 359 359 2 355 349 348 351 356 8 22
312 344 349 339 351 317 327 335 343 17 26 355 10 359 357 1 352 354 342 342 2 1
305 302 358 9 350 344 343 350 357 13 348 5 7 354 352 351 6 340 343 356 2 9